Regional Weather Roundup
Issued by NWS

Home | Current Version | Previous Version | Graphics & Text | Print | Product List | Glossary On
Versions: 1 2 3 4 5 6 7 8 9 10 11 12 13 14 15 16 17 18 19 20 21 22 23 24 25 26 27 28 29 30 31 32 33 34 35 36 37 38 39 40 41 42 43 44 45 46 47 48 49 50
000
ASUS43 KLSX 061607
RWRMO

WEATHER SUMMARY FOR MISSOURI
NATIONAL WEATHER SERVICE SPRINGFIELD MO
1100 AM CDT MON JUL 06 2015

NOTE: "FAIR" INDICATES FEW OR NO CLOUDS BELOW 12,000 FEET WITH NO
       SIGNIFICANT WEATHER AND/OR OBSTRUCTIONS TO VISIBILITY.
       CURRENT SKY AND/OR WEATHER CONDITIONS ARE NOT AVAILABLE FOR
       CHILLICOTHE AND FARMINGTON.

MOZ001>031-035>038-043-044-053-054-061700-
...NORTHERN AND WESTERN MISSOURI...

CITY           SKY/WX    TMP DP  RH WIND       PRES   REMARKS
KANSAS CTY INT PTSUNNY   83  74  74 S10       29.92S
KANSAS C DTWN  FAIR      85  73  67 S12       29.91S HX  91
LEE`S SUMMIT   FAIR      80  72  76 S13       29.94S
ST JOSEPH      FAIR      82  74  76 S12       29.89F
CHILLICOTHE      N/A     82  73  74 S12       29.92F
KIRKSVILLE     FAIR      78  71  79 SW9G18    29.94S

$$
MOZ066>068-077>081-088>096-101>105-061700-
...SOUTHWEST MISSOURI...

CITY           SKY/WX    TMP DP  RH WIND       PRES   REMARKS
SPRINGFIELD    FAIR      80  73  79 S13       30.02F
JOPLIN         PTSUNNY   82  73  74 S17       29.99S

$$
MOZ032>034-039>042-045>050-055>058-069>072-061700-
...CENTRAL MISSOURI...

CITY           SKY/WX    TMP DP  RH WIND       PRES   REMARKS
COLUMBIA       FAIR      81  73  76 SW14      29.99F
JEFFERSON CITY FAIR      82  72  71 SW12G20   29.98F
ROLLA          FAIR      83  74  74 S14       30.02S
SEDALIA        FAIR      84  73  69 SW15G21   29.98F HX  90
WHITEMAN AFB   FAIR      81  73  76 SW14      29.94F
WARRENSBURG    FAIR      81  72  74 S10       29.94F
OSAGE BEACH    FAIR      82  72  69 S7        30.01S

$$
MOZ051-052-059>065-061700-
...EAST CENTRAL MISSOURI...

CITY           SKY/WX    TMP DP  RH WIND       PRES   REMARKS
ST LOUIS INTL  PTSUNNY   88  72  58 SW8       30.01F HX  94
SPIRIT OF STL  PTSUNNY   86  75  69 VRB7G16   29.99F HX  95
ST CHARLES     FAIR      85  74  69 S9        29.99F HX  92

$$
MOZ072>076-082>087-097>100-106>115-061700-
...SOUTH CENTRAL AND SOUTHEAST MISSOURI...

CITY           SKY/WX    TMP DP  RH WIND       PRES   REMARKS
CAPE GIRARDEAU LGT RAIN  76  73  91 SW9       30.07F
FARMINGTON     CLOUDY    79  73  83 S10       30.11S
POPLAR BLUFF   CLOUDY    76  71  85 SW9       30.07F
WEST PLAINS    PTSUNNY   80  71  74 S6        30.09F

$$



USA.gov is the U.S. government's official web portal to all federal, state and local government web resources and services.